Location: Milano
(45.4670°N, 9.2000°E)
Time: 20:59:43
(UTC+02:00)

ISS - Pass Details

Date: 21 May 2021
Orbit: 417 x 422 km, 51.6° (Epoch: 14 June)

Event Time Altitude Azimuth Distance (km) Brightness Sun altitude
Rises 23:44:01 0° 295° (WNW) 2,368 0.8 -20.6°
Reaches altitude 10° 23:46:16 10° 306° (NW) 1,504 -0.1 -20.8°
Maximum altitude 23:49:21 31° 11° (N) 757 -2.0 -21.0°
Enters shadow 23:51:03 20° 61° (ENE) 1,049 -1.7 -21.1°
